Retour au catalogue

BREEZE-M DEB

LostHEO
NORAD 38580·DEBRIS·🇷🇺 Russia

Lancé Mar 14, 2008 depuis Baikonur Cosmodrome

Loading…

Prochains Passages (prochaines 24 heures)

TLE

PériméSource: Space-Track

Époque: Aug 17, 2023, 22:31 UTC

1 38580U 08011AB  23229.93878683 -.00000099  00000-0  00000+0 0  9992
2 38580  47.7524 128.2548 6332035 207.2908  96.4290  2.93777912132312

Suivez BREEZE-M DEB en temps réel avec AllMySat

Download on the App Store